Location: Boussac
(44.2782°N, 2.3665°E)
Time: 19:28:23
(UTC+00:00)

Cosmos 540 Rocket - Pass Details

Date: 15 May 2026
Orbit: 735 x 747 km, 74.1° (Epoch: 7 June)

Event Time Altitude Azimuth Distance (km) Brightness Sun altitude
Exits shadow 22:07:42 35° 217° (SW) 1,203 4.2 -22.7°
Maximum altitude 22:09:53 71° 292° (WNW) 793 3.6 -22.9°
Drops below altitude 10° 22:15:02 10° 17° (NNE) 2,272 6.6 -23.3°
Sets 22:17:24 0° 19° (NNE) 3,199 7.4 -23.5°
